MEZNSAT (46489 NORAD) Tracking and Keplerian Element Data

This shows tracking and keplerian element data for the satellite.

Feedback or suggestion? Click here.




ElementValue
Catalog46489
NameMEZNSAT
Epoch Orbit486
Epoch Day304.89035445
Epoch Year2020
RAAN238.0938
Inclination97.6707
Eccentricity0.0020133
Argument of Perigee128.1576
Mean Anonmoly232.1452
Mean Motion15.03577715
Decay Rate1.252E-05
L11 46489U 20068D 20304.89035445 .00001252 00000-0 95772-4 0 9998
L22 46489 97.6707 238.0938 0020133 128.1576 232.1452 15.03577715 4869

Live tracking and technical data element details for MEZNSAT (NORAD 46489). MEZNSAT can be tracked NOW for your location showing map with azimuth and elevation plus other details from your city location.

Track the satellite on the map from your city or location and see movement details for azimuth, elevation, latitude, longitude, range, height, and movement on the map or in text.







IsCatalogInMostPopularTable: catalog: 46489, numindb: 6
Update: records affected: 1



GetName: 46489 MEZNSAT

Hit Count: updated at: Sat, 31 Oct 2020 10:49:23 GMT